KE0RKB Weather Reports


time (UTC)temp
C
wind
direction
speed
KPH
gust
KPH
rain 1hr
cm
rain 24hr
cm
rain mn
cm
humidity
%
barometer
mb
20260507154548 12 1 12.9 24.1 0.00 0.51 0.00 42 1017.5
20260507153048 12 1 14.5 27.4 0.00 0.51 0.00 45 1017.6
20260507151543 11 1 14.5 27.4 0.00 0.51 0.00 46 1017.6
20260507150041 10 360 17.7 27.4 0.00 0.51 0.00 45 1017.6
20260507144546 10 1 16.1 27.4 0.00 0.51 0.00 47 1017.8
20260507143045 9 1 12.9 24.1 0.00 0.51 0.00 47 1017.8
20260507141541 8 1 17.7 29.0 0.00 0.51 0.00 49 1017.4
20260507140052 7 360 14.5 29.0 0.00 0.51 0.00 51 1017.5
20260507134551 7 1 17.7 27.4 0.00 0.51 0.00 50 1017.6
20260507133055 6 1 20.9 27.4 0.00 0.51 0.00 50 1017.5
20260507131555 5 1 16.1 33.8 0.00 0.51 0.00 51 1017.3
20260507130106 5 1 20.9 29.0 0.00 0.51 0.00 49 1017.1
20260507124548 5 1 19.3 27.4 0.00 0.51 0.00 48 1016.8
20260507123042 5 1 20.9 30.6 0.00 0.51 0.00 50 1016.6
20260507121556 5 1 20.9 33.8 0.00 0.51 0.00 48 1016.7
20260507120045 5 360 20.9 30.6 0.00 0.51 0.00 48 1016.6
20260507114555 4 1 17.7 25.7 0.00 0.51 0.00 50 1016.5
20260507113045 4 1 17.7 29.0 0.00 0.51 0.00 49 1016.4
20260507111543 4 1 20.9 29.0 0.00 0.51 0.00 50 1016.4
20260507110053 3 1 19.3 29.0 0.00 0.51 0.00 52 1016.3
20260507104544 4 1 20.9 30.6 0.00 0.51 0.00 51 1016.5
20260507103047 4 1 17.7 29.0 0.00 0.51 0.00 51 1016.7
20260507101538 3 1 19.3 27.4 0.00 0.51 0.00 54 1017.0
20260507100043 3 1 17.7 29.0 0.00 0.51 0.00 53 1017.2
20260507094546 3 1 20.9 30.6 0.00 0.51 0.00 54 1017.0
20260507093049 3 1 19.3 29.0 0.00 0.51 0.00 55 1017.2
20260507091544 3 1 19.3 30.6 0.00 0.51 0.00 57 1017.0
20260507090040 3 1 19.3 33.8 0.00 0.51 0.00 57 1017.1
20260507084545 3 1 20.9 30.6 0.00 0.51 0.00 59 1017.0
20260507083044 3 360 16.1 30.6 0.00 0.51 0.00 60 1017.0
20260507081548 3 1 19.3 30.6 0.00 0.51 0.00 61 1017.4
20260507080040 2 360 17.7 32.2 0.00 0.51 0.00 66 1017.4
20260507074559 2 360 17.7 29.0 0.00 0.51 0.00 66 1017.5
20260507073045 2 1 19.3 29.0 0.00 0.51 0.00 68 1017.7
20260507071540 2 1 17.7 29.0 0.00 0.51 0.00 71 1018.0
20260507070042 2 360 16.1 24.1 0.00 0.51 0.00 72 1017.9
20260507064542 2 360 12.9 24.1 0.00 0.51 0.00 73 1017.8
20260507063041 1 1 16.1 20.9 0.00 0.51 0.00 76 1017.9
20260507061543 1 1 16.1 22.5 0.00 0.51 0.00 80 1018.0
20260507060045 0 360 12.9 20.9 0.00 0.51 0.00 82 1018.2
20260507054628 0 1 11.3 19.3 0.00 0.51 0.51 83 1018.1
20260507053049 0 1 11.3 19.3 0.00 0.51 0.51 83 1018.3
20260507051544 0 1 12.9 16.1 0.00 0.51 0.51 84 1018.4
20260507050050 0 360 12.9 19.3 0.00 0.51 0.51 84 1018.5
20260507044559 0 1 14.5 22.5 0.00 0.51 0.51 84 1018.5
20260507043046 0 1 16.1 24.1 0.00 0.51 0.51 84 1018.6
20260507041548 0 1 16.1 27.4 0.00 0.51 0.51 83 1018.6
20260507040048 1 360 16.1 25.7 0.00 0.51 0.51 83 1018.4
20260507034556 1 1 16.1 20.9 0.00 0.51 0.51 83 1018.5
20260507033053 0 1 14.5 19.3 0.00 0.51 0.51 83 1018.5
20260507031606 0 1 14.5 20.9 0.00 0.51 0.51 82 1018.5
20260507030052 0 1 16.1 20.9 0.00 0.51 0.51 81 1018.4
20260507024546 0 1 12.9 17.7 0.00 0.51 0.51 82 1018.3
20260507023044 0 1 12.9 17.7 0.00 0.51 0.51 83 1018.4
20260507021547 0 1 12.9 17.7 0.00 0.51 0.51 83 1018.3
20260507020055 1 1 11.3 16.1 0.00 0.51 0.51 82 1018.5
20260507014557 1 1 11.3 16.1 0.00 0.51 0.51 79 1018.6
20260507013044 2 1 12.9 19.3 0.00 0.51 0.51 76 1018.4
20260507011543 2 1 11.3 14.5 0.00 0.51 0.51 75 1018.5
20260507010044 3 1 6.4 12.9 0.00 0.51 0.51 74 1018.8
20260507004542 2 1 8.0 12.9 0.00 0.51 0.51 72 1018.8
20260507003049 3 1 4.8 12.9 0.00 0.51 0.51 75 1018.9
20260507001544 2 1 6.4 16.1 0.00 0.51 0.51 73 1018.8
20260507000043 2 1 9.7 16.1 0.00 0.51 0.51 74 1019.0
20260506234539 2 1 9.7 14.5 0.00 0.61 0.51 74 1019.0
20260506233053 2 1 6.4 16.1 0.00 0.61 0.51 74 1019.2
20260506231544 2 1 4.8 14.5 0.00 0.61 0.51 75 1019.1
20260506230046 3 1 6.4 11.3 0.00 0.61 0.51 73 1019.2
20260506224541 2 1 6.4 14.5 0.00 0.71 0.51 79 1019.3
20260506223043 1 1 6.4 9.7 0.00 0.71 0.51 78 1019.5
20260506221543 2 1 6.4 11.3 0.00 0.71 0.51 77 1019.5
20260506220048 2 1 3.2 6.4 0.00 0.71 0.51 75 1019.6
20260506214542 3 0 0.0 3.2 0.00 0.74 0.51 73 1019.8
20260506213051 3 1 1.6 6.4 0.00 0.74 0.51 72 1019.9
20260506211543 3 1 3.2 6.4 0.00 0.74 0.51 70 1020.0
20260506210039 3 1 1.6 6.4 0.00 0.74 0.51 71 1020.1
20260506204551 5 1 0.0 0.0 0.00 0.76 0.51 68 1020.4
20260506203052 5 0 1.6 3.2 0.00 0.76 0.51 69 1020.4
20260506201553 3 1 3.2 6.4 0.00 0.76 0.51 77 1020.4
20260506200047 3 1 4.8 8.0 0.00 0.76 0.51 76 1020.4
20260506194556 3 1 6.4 11.3 0.00 0.79 0.51 76 1020.5
20260506193041 3 1 8.0 12.9 0.00 0.79 0.51 76 1020.7
20260506191548 2 1 6.4 11.3 0.00 0.79 0.51 81 1020.7
20260506190051 2 1 6.4 12.9 0.03 0.79 0.51 82 1020.8
20260506184541 1 1 8.0 12.9 0.03 0.84 0.51 84 1021.0
20260506183042 1 1 11.3 16.1 0.08 0.84 0.51 84 1021.1
20260506181544 1 1 9.7 17.7 0.13 0.84 0.51 86 1020.9
20260506180050 0 1 12.9 17.7 0.13 0.81 0.48 87 1020.9
20260506174545 0 1 14.5 20.9 0.18 0.84 0.48 88 1020.7
20260506173055 0 1 14.5 24.1 0.18 0.79 0.43 89 1020.7
20260506171549 0 1 17.7 29.0 0.15 0.74 0.38 90 1020.4
20260506170038 0 1 17.7 25.7 0.18 0.71 0.36 90 1020.2
20260506164542 0 1 16.1 25.7 0.15 0.71 0.30 90 1020.1
20260506163104 0 1 14.5 19.3 0.15 0.66 0.25 91 1019.8
20260506161542 0 1 12.9 17.7 0.13 0.64 0.23 92 1019.6
20260506160039 0 1 12.9 17.7 0.18 0.58 0.18 92 1019.6